Regional Weather Roundup
Issued by NWS

Home | Current Version | Previous Version | Text Only | Print | Product List | Glossary Off
Versions: 1 2 3 4 5 6 7 8 9 10 11 12 13 14 15 16 17 18 19 20 21 22 23 24 25 26 27 28 29 30 31 32 33 34 35 36 37 38 39 40 41 42 43 44 45 46 47 48 49 50

000
ASUS45 KSLC 202010
RWRUT

UTAH REGIONAL WEATHER ROUNDUP
NATIONAL WEATHER SERVICE SALT LAKE CITY UT
200 PM MDT WED AUG 20 2014

UTZ001>011-023>025-202100-

NORTHERN UTAH

CITY           SKY/WX    TMP DP  RH WIND       PRES   REMARKS
HILL AFB       MOSUNNY   77  52  41 VRB6      30.02F
LOGAN          SUNNY     78  50  37 S6        29.98F
OGDEN          MOSUNNY   78  50  37 SE8G17    30.00F
PROVO AIRPORT    N/A     75  55  50 SE7       30.05F
SALT LAKE CITY PTSUNNY   77  49  37 S16       29.98F
VERNAL         MOSUNNY   74  54  49 S6        30.03F
WENDOVER       MOSUNNY   82  46  28 SE13G18   29.95F
HEBER CITY     MOSUNNY   72  52  49 CALM      30.07F
WEST JORDAN    SUNNY     77  57  50 SE17      30.02F

$$

UTZ012>022-026-027-202100-

SOUTHERN UTAH

CITY           SKY/WX    TMP DP  RH WIND       PRES   REMARKS
BRYCE CANYON   CLOUDY    60  47  61 N9        30.25S
CEDAR CITY     MOSUNNY   76  50  40 SW14G23   30.11F
MILFORD        MOSUNNY   81  53  37 S21G29    30.06F
MOAB/CYNLANDS  MOSUNNY   79  49  34 MISG      29.99F
PRICE          CLOUDY    71  52  50 SW5       30.09S
ST GEORGE      PTCLDY    82  55  39 N7        30.00F
KANAB            N/A     79  50  36 SW9       30.13F

$$

REGIONAL REPORTS     COLORADO/ARIZONA

CITY           SKY/WX    TMP DP  RH WIND       PRES   REMARKS
CRAIG, CO      LGT RAIN  63  60  90 CALM      30.10F FOG
GRAND JUNCTION MOSUNNY   76  54  46 SW3       30.02F
RIFLE          MOSUNNY   75  48  38 W16       30.04S
MONTROSE       MOSUNNY   78  49  35 N6        30.08F
CORTEZ         SUNNY     79  45  29 NW16      30.13F
PAGE, AZ       SUNNY     83  50  31 VRB3      30.03F
GRAND CANYON   MOSUNNY   66  52  60 SE12      30.24S
KINGMAN        MOSUNNY   86  48  26 W13       30.04F
FLAGSTAFF      PTSUNNY   70  44  39 SW9       30.26S

$$

REGIONAL REPORTS    NEVADA/IDAHO/WYOMING

CITY           SKY/WX    TMP DP  RH WIND       PRES   REMARKS
LAS VEGAS, NV  MOSUNNY   92  36  14 S17G31    29.88F
ELY            MOSUNNY   75  44  33 VRB5      30.10F
ELKO           SUNNY     84  35  17 W15       29.96F
POCATELLO, ID  MOSUNNY   81  49  32 SW12      29.93F
BURLEY         MOSUNNY   82  46  28 N6        29.89F
EVANSTON, WY   MOSUNNY   67  48  50 W15G25    30.12F
ROCK SPRINGS   PTSUNNY   70  44  39 W18       30.09S

$$



USA.gov is the U.S. government's official web portal to all federal, state and local government web resources and services.